Regional Weather Roundup
Issued by NWS Columbia, SC

Home | Current Version | Previous Version | Text Only | Print | Product List | Glossary On
Versions: 1 2 3 4 5 6 7 8 9 10 11 12 13 14 15 16 17 18 19 20 21 22 23 24 25 26 27 28 29 30 31 32 33 34 35 36 37 38 39 40 41 42 43 44 45 46 47 48 49 50
000
ASUS42 KCAE 281210
RWRCAE
REGIONAL WEATHER ROUNDUP
NATIONAL WEATHER SERVICE COLUMBIA SC
800 AM EDT THU MAY 28 2015

NOTE: "FAIR" INDICATES FEW OR NO CLOUDS BELOW 12,000 FEET WITH NO
SIGNIFICANT WEATHER AND/OR OBSTRUCTIONS TO VISIBILITY.

NOT ALL STATIONS ARE QUALITY CONTROLLED BY THE NATIONAL
WEATHER SERVICE. USE DATA WITH CAUTION...ESPECIALLY
DEWPOINT OBSERVATIONS.

SCZ001>056-GAZ040-063>065-077-281300-
...UPSTATE SOUTH CAROLINA...

CITY           SKY/WX    TMP DP  RH WIND       PRES   REMARKS
ANDERSON       MOSUNNY   70  67  90 E3        30.21S
6HR MIN TEMP:  64; 6HR MAX TEMP:  70;

LIBERTY        SUNNY    N/A N/A N/A CALM      30.22R
SPARTANBURG    SUNNY     70  70 100 CALM      30.22R
CLEMSON        MOSUNNY   70  66  87 N5        30.23R
6HR MIN TEMP:  68; 6HR MAX TEMP:  71;

GREENVILLE     SUNNY     70  64  81 N3        30.22S
6HR MIN TEMP:  65; 6HR MAX TEMP:  70;

GREENWOOD      MOSUNNY   71  68  90 SE5       30.22S
6HR MIN TEMP:  65; 6HR MAX TEMP:  71;

GREER          SUNNY     68  65  90 NE6       30.21R
6HR MIN TEMP:  62; 6HR MAX TEMP:  68;

ROCK HILL      MOSUNNY   70  67  90 S3        30.23R
6HR MIN TEMP:  65; 6HR MAX TEMP:  70;

CHESTER        MOSUNNY   72  68  88 CALM      30.23R
LAURENS        SUNNY     68  68 100 CALM      30.22R


...CENTRAL SOUTH CAROLINA...

CITY           SKY/WX    TMP DP  RH WIND       PRES   REMARKS
COLUMBIA APT   PTSUNNY   70  66  87 CALM      30.21R
6HR MIN TEMP:  66; 6HR MAX TEMP:  71;

COLUMBIA OWENS SUNNY     70  67  90 CALM      30.23R
6HR MIN TEMP:  67; 6HR MAX TEMP:  70;

DARLINGTON     SUNNY     72  64  78 S5        30.24R
6HR MIN TEMP:  64; 6HR MAX TEMP:  72;

FLORENCE       MOSUNNY   70  68  93 SE3       30.23R
6HR MIN TEMP:  67; 6HR MAX TEMP:  71;

MCENTIRE ANGB  PTSUNNY   69  68  98 E1        30.22R
6HR MIN TEMP:  64; 6HR MAX TEMP:  69;

ORANGEBURG     SUNNY     70  66  87 CALM      30.22R
6HR MIN TEMP:  64; 6HR MAX TEMP:  70;

SUMTER SHAW    FOG       70  68  94 NE1       30.21R VSB 1
6HR MIN TEMP:  66; 6HR MAX TEMP:  70;

NEWBERRY       MOSUNNY   70  68  94 CALM      30.24S
AIKEN          FAIR      68  64  88 SE3       30.25R
BARNWELL       FAIR      72  68  88 CALM      30.22R
MANNING        FAIR      68  64  88 CALM      30.22S
CAMDEN         FAIR      70  68  94 CALM      30.23R
LANCASTER      LGT RAIN  68  68 100 S3        30.22S
WINNSBORO      MOSUNNY   68  68 100 S3        30.22R


...EASTERN AND COASTAL SOUTH CAROLINA...

CITY           SKY/WX    TMP DP  RH WIND       PRES   REMARKS
MYRTLE BEACH   MOSUNNY   75  64  69 SE8       30.25R
N MYRTLE BCH   MOSUNNY   76  64  66 SE5       30.24R
6HR MIN TEMP:  69; 6HR MAX TEMP:  76;

CONWAY         FAIR      70  70 100 CALM      30.24R
MARION         FAIR      70  70 100 CALM      30.24R
HARTSVILLE     CLOUDY    68  68 100 CALM      30.23R
FLORENCE       MOSUNNY   70  68  93 SE3       30.23R
6HR MIN TEMP:  67; 6HR MAX TEMP:  71;

DARLINGTON     SUNNY     72  64  78 S5        30.24R
6HR MIN TEMP:  64; 6HR MAX TEMP:  72;

CHARLESTON APT MOSUNNY   74  69  85 E3        30.21R
6HR MIN TEMP:  66; 6HR MAX TEMP:  74;

MOUNT PLEASANT FAIR      72  70  94 CALM      30.22R
WALTERBORO     SUNNY     70  68  94 CALM      30.22S
BEAUFORT       MOSUNNY   75  70  84 CALM      30.21R
6HR MIN TEMP:  68; 6HR MAX TEMP:  75;



...EASTERN GEORGIA...

CITY           SKY/WX    TMP DP  RH WIND       PRES   REMARKS
AUGUSTA BUSH F PTSUNNY   71  67  87 SE5       30.21R
6HR MIN TEMP:  67; 6HR MAX TEMP:  71;

AUGUSTA DANIEL PTSUNNY   73  65  75 S3        30.22R
6HR MIN TEMP:  71; 6HR MAX TEMP:  75;

THOMSON        PTSUNNY   73  72  96 SE3       30.25S
6HR MIN TEMP:  69; 6HR MAX TEMP:  73;

WASHINGTON     FAIR      72  72 100 CALM      30.21R
CLAXTON        FAIR      68  66  94 CALM      30.21R
SYLVANIA       SUNNY     70  70  98 CALM      30.22R
6HR MIN TEMP:  64; 6HR MAX TEMP:  70;

STATESBORO     SUNNY     69  69 100 CALM      30.21R
6HR MIN TEMP:  63; 6HR MAX TEMP:  69;

SAVANNAH       MOSUNNY   72  67  84 CALM      30.21R
6HR MIN TEMP:  64; 6HR MAX TEMP:  72;



...SOUTHERN NORTH CAROLINA...

CITY           SKY/WX    TMP DP  RH WIND       PRES   REMARKS
CHARLOTTE      PTSUNNY   71  67  87 CALM      30.23R
6HR MIN TEMP:  67; 6HR MAX TEMP:  71;

MONROE         MOSUNNY   71  67  87 SW5       30.21S
6HR MIN TEMP:  66; 6HR MAX TEMP:  71;

WADESBORO      FOG       67  66  96 CALM      30.22S VSB 1/4
6HR MIN TEMP:  64; 6HR MAX TEMP:  69;

ROCKINGHAM     CLOUDY    70  68  94 SE5       30.23S
6HR MIN TEMP:  67; 6HR MAX TEMP:  70;

RUTHERFORDTON  SUNNY     66  65  96 CALM      30.25R
6HR MIN TEMP:  60; 6HR MAX TEMP:  67;

ASHEVILLE      CLOUDY    63  61  93 N8        30.29R FOG
6HR MIN TEMP:  63; 6HR MAX TEMP:  66;


$$


USA.gov is the U.S. government's official web portal to all federal, state and local government web resources and services.